Flag for Turkey Weather past 2 weeks in Bursa, Turkey

Now
81 °F

Passing clouds.


Feels Like: 82 °F
Forecast: 67 / 99 °F
Wind: 1 mph from Southeast

Location: Bursa

Current Time: Jul 31, 2014 at 11:31:22 PM

Latest Report: Jul 31, 2014 at 10:00 PM


Visibility: 13 mi

Pressure: 29.70 "Hg

Humidity: 51%

Dew point: 61 °F

Location of BursaLocation

Historic Weather in Bursa — Graph

°F

Bursa temperature yesterday

Maximum temperature yesterday: 92 °F (at 4:00 PM)
Minimum temperature yesterday: 74 °F (at 6:00 AM)
Average temperature yesterday: 85 °F

Past Weeks' High & Low Weather Summary

 TemperatureHumidityPressure
High95 °F (Jul 22, 4:00 PM)91% (Jul 17, 7:00 AM)29.93 "Hg (Jul 17, 7:00 AM)
Low64 °F (Jul 18, 6:00 AM)30% (Jul 22, 6:00 PM)29.65 "Hg (Jul 23, 5:00 PM)
Average80 °F64%29.83 "Hg
* Reported Jul 16 10:00 PM — Jul 31 10:00 PM, Bursa, Weather by CustomWeather, © 2014

Note: Actual official high and low records may vary slightly from our data, if they occured in-between our weather recording intervals... More about our weather records

Advertising

Bursa weather history for previous 24 hours

 ConditionsComfort  
Time TempWeatherWind HumidityBarometerVisibility
10:00 PM
Jul 31
81 °FPassing clouds.1 mph51%29.70 "Hg12 mi
9:00 PM84 °FClear.3 mph49%29.69 "Hg12 mi
8:00 PM87 °FSunny.2 mph45%29.69 "Hg12 mi
7:00 PM90 °FSunny.6 mph40%29.70 "Hg12 mi
6:00 PM92 °FSunny.8 mph39%29.70 "Hg12 mi
5:00 PM93 °FSunny.7 mph43%29.70 "Hg12 mi
4:00 PM94 °FSunny.6 mph30%29.71 "Hg12 mi
3:00 PM93 °FSunny.3 mph37%29.73 "Hg12 mi
2:00 PM92 °FSunny.3 mph32%29.75 "Hg12 mi
1:00 PM89 °FSunny.2 mph32%29.77 "Hg12 mi
12:00 PM86 °FSunny.3 mph49%29.79 "Hg12 mi
11:00 AM83 °FSunny.3 mph58%29.80 "Hg12 mi
10:00 AM80 °FSunny.5 mph67%29.81 "Hg12 mi
9:00 AM78 °FSunny.2 mph65%29.82 "Hg12 mi
6:00 AM67 °FSunny.1 mph90%29.81 "Hg9 mi
3:00 AM73 °FClear.5 mph74%29.83 "Hg9 mi
12:00 AM77 °FClear.2 mph69%29.82 "Hg12 mi
Weather by CustomWeather, © 2014

See weather overviewHow to use our weather pages